sat.trackr.live / text

‹ back to catalog

STARLINK-4728

NORAD 53793 · 2022-111W

PAYLOAD ACTIVE UNKNOWN

§ Identity

Operator
Country
US
Launch date
2022-09-11
Launch site
AFETR
Launch vehicle
Mass (kg)
RCS (m²)

Purposes: comms

External: N2YO · Heavens-Above · Gunter

§ Orbital elements

Epoch: 2026-09-20T06:19:07.706496Z

Period
94.01 min
Inclination
53.1595°
Eccentricity
0.0001613
Mean motion
15.31703478 rev/d
Perigee alt
469.6 km
Apogee alt
471.8 km
Semi-major
6,848.9 km
B*
2.6781e-5
RAAN
107.1232°
Arg perigee
88.7177°
Mean anomaly
271.4009°
Rev number
22,324

§ Raw data

STARLINK-47281 53793U 22111W   26263.26328364  .00000466  00000+0  26781-4 0  99902 53793  53.1595 107.1232 0001613  88.7177 271.4009 15.31703478223247

JSON: /api/v1/satellites/53793 · /tle

For live sub-satellite position, see the globe view (requires WebGL).

§ Visibility from observer

Set your observer location to see the next 7 days of passes ≥ 10°. The values pass through the URL so the page stays shareable.

No JS? Fill the form by hand. The geolocation button needs JavaScript.